Location: Gollag?dem
(17.0207°N, 80.7261°E)
Time: 07:14:21
(UTC+00:00)

Cosmos 2315 Rocket - Pass Details

Date: 03 August 2024
Orbit: 965 x 1002 km, 82.9° (Epoch: 10 September)

Event Time Altitude Azimuth Distance (km) Brightness Sun altitude
Rises 22:44:36 0° 176° (S) 3,711 6.8 -21.4°
Reaches altitude 10° 22:47:09 10° 173° (S) 2,765 6.2 -20.9°
Maximum altitude 22:53:26 65° 92° (E) 1,094 4.4 -19.6°
Drops below altitude 10° 22:59:42 10° 12° (NNE) 2,765 6.9 -18.2°
Sets 23:02:15 0° 10° (N) 3,712 7.5 -17.7°
